This is the latest recevied weather packets stored in our database for station/object N7WSS. If no packets are shown the sender has not sent any weather packets the latest 10 day(s).
| Time | Temp. | Humidity | Pressure | Rain* | Wind** | Luminosity | Snow |
|---|---|---|---|---|---|---|---|
| 1777322098 | 26.11° C | 17% | 1010.4 hPa | 0 mm | - | - | - |
| 1777321795 | 26.67° C | 16% | 1010.8 hPa | 0 mm | - | - | - |
| 1777321491 | 26.67° C | 16% | 1010.9 hPa | 0 mm | - | - | - |
| 1777321189 | 27.78° C | 15% | 1011.1 hPa | 0 mm | - | - | - |
| 1777320886 | 26.11° C | 16% | 1010.9 hPa | 0 mm | - | - | - |
| 1777320583 | 26.11° C | 16% | 1010.8 hPa | 0 mm | - | - | - |
| 1777320281 | 26.11° C | 15% | 1010.9 hPa | 0 mm | - | - | - |
| 1777319977 | 25.56° C | 16% | 1011.1 hPa | 0 mm | - | - | - |
| 1777319674 | 26.11° C | 15% | 1011.3 hPa | 0 mm | - | - | - |
| 1777319371 | 25.56° C | 16% | 1011.3 hPa | 0 mm | - | - | - |
| 1777319068 | 25° C | 17% | 1011.4 hPa | 0 mm | - | - | - |
| 1777318765 | 25.56° C | 17% | 1011.5 hPa | 0 mm | - | - | - |
| 1777318460 | 25.56° C | 17% | 1011.4 hPa | 0 mm | - | - | - |
| 1777318158 | 25° C | 18% | 1011.3 hPa | 0 mm | - | - | - |
| 1777317855 | 24.44° C | 19% | 1011.4 hPa | 0 mm | - | - | - |
| 1777317552 | 25° C | 19% | 1011.5 hPa | 0 mm | - | - | - |
| 1777317249 | 25° C | 19% | 1011.3 hPa | 0 mm | - | - | - |
| 1777316944 | 25° C | 20% | 1011.3 hPa | 0 mm | - | - | - |
| 1777316642 | 25° C | 21% | 1011.4 hPa | 0 mm | - | - | - |
| 1777316338 | 24.44° C | 20% | 1011.3 hPa | 0 mm | - | - | - |
| 1777316035 | 24.44° C | 21% | 1011.7 hPa | 0 mm | - | - | - |
| 1777315735 | 25° C | 21% | 1011.6 hPa | 0 mm | - | - | - |
| 1777315432 | 23.89° C | 22% | 1011.7 hPa | 0 mm | - | - | - |
| 1777315129 | 22.78° C | 24% | 1011.6 hPa | 0 mm | - | - | - |
| 1777314824 | 23.89° C | 23% | 1011.8 hPa | 0 mm | - | - | - |
* Rain latest hour (hover to see other rain measurements)
** Current wind speed in m/s (hover to see current wind gust speed)